Time,TemperatureF,DewpointF,PressureIn,WindDirection,WindDirectionDegrees,WindSpeedMPH,WindSpeedGustMPH,Humidity,HourlyPrecipIn,Conditions,Clouds,dailyrainin,SoftwareType,DateUTC
2013-05-03 00:02:00,32.3,31.3,30.26,NNE,13,5.0,16.0,96,0.00,,,0.00,Wunderground v.1.15,2013-05-03 05:02:00,
2013-05-03 00:08:00,32.3,31.3,30.26,North,349,4.0,16.0,96,0.00,,,0.00,Wunderground v.1.15,2013-05-03 05:08:00,
2013-05-03 00:13:00,32.3,31.3,30.25,WNW,300,5.0,16.0,96,0.00,,,0.00,Wunderground v.1.15,2013-05-03 05:13:00,
2013-05-03 00:20:00,32.2,31.2,30.25,NNW,329,4.0,4.0,96,0.00,,,0.00,Wunderground v.1.15,2013-05-03 05:20:00,
2013-05-03 00:26:00,32.2,31.2,30.25,SSE,163,4.0,16.0,96,0.00,,,0.00,Wunderground v.1.15,2013-05-03 05:26:00,
2013-05-03 00:32:00,32.1,31.3,30.25,NNW,334,4.0,7.0,97,0.00,,,0.00,Wunderground v.1.15,2013-05-03 05:32:00,
2013-05-03 00:38:00,32.1,31.3,30.25,NW,319,4.0,16.0,97,0.00,,,0.00,Wunderground v.1.15,2013-05-03 05:38:00,
2013-05-03 00:44:00,32.1,31.3,30.25,WNW,302,4.0,16.0,97,0.00,,,0.00,Wunderground v.1.15,2013-05-03 05:44:00,
2013-05-03 00:50:00,32.1,31.3,30.24,NW,318,4.0,16.0,97,0.00,,,0.00,Wunderground v.1.15,2013-05-03 05:50:00,
2013-05-03 00:56:00,32.1,31.3,30.24,North,9,4.0,16.0,97,0.00,,,0.00,Wunderground v.1.15,2013-05-03 05:56:00,
2013-05-03 01:02:00,32.0,31.2,30.24,North,358,4.0,16.0,97,0.00,,,0.00,Wunderground v.1.15,2013-05-03 06:02:00,
2013-05-03 01:08:00,32.0,31.2,30.24,NNW,329,3.0,16.0,97,0.00,,,0.00,Wunderground v.1.15,2013-05-03 06:08:00,
2013-05-03 01:14:00,32.0,31.2,30.23,WNW,301,3.0,16.0,97,0.00,,,0.00,Wunderground v.1.15,2013-05-03 06:14:00,
2013-05-03 01:20:00,32.0,31.2,30.24,North,4,4.0,16.0,97,0.00,,,0.00,Wunderground v.1.15,2013-05-03 06:20:00,
2013-05-03 01:26:00,32.0,31.2,30.24,NNE,20,3.0,16.0,97,0.00,,,0.00,Wunderground v.1.15,2013-05-03 06:26:00,
2013-05-03 01:32:00,32.0,31.2,30.23,NW,326,4.0,5.0,97,0.00,,,0.00,Wunderground v.1.15,2013-05-03 06:32:00,
2013-05-03 01:37:00,32.0,31.2,30.22,NNE,32,5.0,16.0,97,0.00,,,0.00,Wunderground v.1.15,2013-05-03 06:37:00,
2013-05-03 01:44:00,32.0,31.2,30.22,NNW,329,4.0,16.0,97,0.00,,,0.00,Wunderground v.1.15,2013-05-03 06:44:00,
2013-05-03 01:50:00,32.0,31.2,30.22,NW,304,3.0,16.0,97,0.00,,,0.00,Wunderground v.1.15,2013-05-03 06:50:00,
2013-05-03 01:56:00,32.0,31.2,30.21,NW,318,4.0,16.0,97,0.00,,,0.00,Wunderground v.1.15,2013-05-03 06:56:00,
2013-05-03 02:02:00,32.1,31.3,30.21,NNW,337,4.0,8.0,97,0.00,,,0.00,Wunderground v.1.15,2013-05-03 07:02:00,
2013-05-03 02:08:00,32.1,31.3,30.21,North,357,4.0,16.0,97,0.00,,,0.00,Wunderground v.1.15,2013-05-03 07:08:00,
2013-05-03 02:14:00,32.1,31.3,30.20,NW,307,3.0,16.0,97,0.00,,,0.00,Wunderground v.1.15,2013-05-03 07:14:00,
2013-05-03 02:20:00,32.0,31.2,30.20,NNW,329,3.0,16.0,97,0.00,,,0.00,Wunderground v.1.15,2013-05-03 07:20:00,
2013-05-03 02:26:00,32.1,31.3,30.19,NNE,16,3.0,16.0,97,0.00,,,0.00,Wunderground v.1.15,2013-05-03 07:26:00,
2013-05-03 02:32:00,32.0,31.2,30.19,NNW,337,4.0,16.0,97,0.00,,,0.00,Wunderground v.1.15,2013-05-03 07:32:00,
2013-05-03 02:38:00,32.0,31.2,30.18,WNW,302,5.0,16.0,97,0.00,,,0.00,Wunderground v.1.15,2013-05-03 07:38:00,
2013-05-03 02:44:00,32.0,31.2,30.18,West,273,4.0,16.0,97,0.00,,,0.00,Wunderground v.1.15,2013-05-03 07:44:00,
2013-05-03 02:50:00,32.0,31.2,30.17,NNE,20,5.0,5.0,97,0.00,,,0.00,Wunderground v.1.15,2013-05-03 07:50:00,
2013-05-03 02:56:00,32.0,31.2,30.16,NW,311,5.0,16.0,97,0.00,,,0.00,Wunderground v.1.15,2013-05-03 07:56:00,
2013-05-03 03:01:00,32.0,31.2,30.16,NNW,343,4.0,16.0,97,0.00,,,0.00,Wunderground v.1.15,2013-05-03 08:01:00,
2013-05-03 03:08:00,32.0,31.2,30.15,WNW,290,5.0,16.0,97,0.00,,,0.00,Wunderground v.1.15,2013-05-03 08:08:00,
2013-05-03 03:14:00,32.0,31.2,30.16,NNW,329,4.0,16.0,97,0.00,,,0.00,Wunderground v.1.15,2013-05-03 08:14:00,
2013-05-03 03:20:00,31.9,31.1,30.16,NNE,19,5.0,5.0,97,0.00,,,0.00,Wunderground v.1.15,2013-05-03 08:20:00,
2013-05-03 03:26:00,31.9,31.1,30.15,NNW,334,5.0,16.0,97,0.00,,,0.00,Wunderground v.1.15,2013-05-03 08:26:00,
2013-05-03 03:32:00,31.9,31.1,30.14,NNW,342,5.0,16.0,97,0.00,,,0.00,Wunderground v.1.15,2013-05-03 08:32:00,
2013-05-03 03:38:00,31.9,31.1,30.15,NNE,13,5.0,16.0,97,0.00,,,0.00,Wunderground v.1.15,2013-05-03 08:38:00,
2013-05-03 03:44:00,31.9,31.1,30.15,North,11,5.0,16.0,97,0.00,,,0.00,Wunderground v.1.15,2013-05-03 08:44:00,
2013-05-03 03:50:00,31.9,31.1,30.15,NW,315,4.0,16.0,97,0.00,,,0.00,Wunderground v.1.15,2013-05-03 08:50:00,
2013-05-03 03:56:00,31.9,31.1,30.15,NNW,341,4.0,16.0,97,0.00,,,0.00,Wunderground v.1.15,2013-05-03 08:56:00,
2013-05-03 04:02:00,31.9,31.1,30.15,NNE,29,4.0,16.0,97,0.00,,,0.00,Wunderground v.1.15,2013-05-03 09:02:00,
2013-05-03 04:08:00,31.9,31.1,30.15,NNE,20,4.0,16.0,97,0.00,,,0.00,Wunderground v.1.15,2013-05-03 09:08:00,
2013-05-03 04:14:00,31.9,31.1,30.15,NE,39,5.0,16.0,97,0.00,,,0.00,Wunderground v.1.15,2013-05-03 09:14:00,
2013-05-03 04:20:00,31.9,31.1,30.14,NNE,25,5.0,5.0,97,0.00,,,0.00,Wunderground v.1.15,2013-05-03 09:20:00,
2013-05-03 04:25:00,31.9,31.1,30.15,NNE,20,5.0,16.0,97,0.00,,,0.00,Wunderground v.1.15,2013-05-03 09:25:00,
2013-05-03 04:32:00,32.0,31.2,30.15,NNE,26,4.0,16.0,97,0.00,,,0.00,Wunderground v.1.15,2013-05-03 09:32:00,
2013-05-03 04:38:00,32.0,31.2,30.15,North,8,4.0,16.0,97,0.00,,,0.00,Wunderground v.1.15,2013-05-03 09:38:00,
2013-05-03 04:44:00,32.0,31.2,30.14,NE,37,5.0,6.0,97,0.00,,,0.00,Wunderground v.1.15,2013-05-03 09:44:00,
2013-05-03 04:50:00,32.0,31.2,30.14,NNW,331,4.0,4.0,97,0.00,,,0.00,Wunderground v.1.15,2013-05-03 09:50:00,
2013-05-03 04:55:00,32.0,31.2,30.14,WNW,293,4.0,16.0,97,0.00,,,0.00,Wunderground v.1.15,2013-05-03 09:55:00,
2013-05-03 05:02:00,32.0,31.0,30.14,NNE,18,5.0,16.0,96,0.00,,,0.00,Wunderground v.1.15,2013-05-03 10:02:00,
2013-05-03 05:07:00,32.0,31.0,30.13,NNW,340,5.0,16.0,96,0.00,,,0.00,Wunderground v.1.15,2013-05-03 10:07:00,
2013-05-03 05:14:00,32.0,31.0,30.13,North,5,5.0,16.0,96,0.00,,,0.00,Wunderground v.1.15,2013-05-03 10:14:00,
2013-05-03 05:20:00,31.9,30.9,30.13,NNE,27,5.0,16.0,96,0.00,,,0.00,Wunderground v.1.15,2013-05-03 10:20:00,
2013-05-03 05:26:00,32.0,31.0,30.13,NE,50,5.0,16.0,96,0.00,,,0.00,Wunderground v.1.15,2013-05-03 10:26:00,
2013-05-03 05:32:00,32.1,31.1,30.13,NE,43,5.0,16.0,96,0.00,,,0.00,Wunderground v.1.15,2013-05-03 10:32:00,
2013-05-03 05:38:00,32.0,31.0,30.12,NNW,337,4.0,16.0,96,0.00,,,0.00,Wunderground v.1.15,2013-05-03 10:38:00,
2013-05-03 05:44:00,32.0,31.0,30.13,NNE,12,4.0,16.0,96,0.00,,,0.00,Wunderground v.1.15,2013-05-03 10:44:00,
2013-05-03 05:50:00,32.0,31.0,30.13,North,4,3.0,16.0,96,0.00,,,0.00,Wunderground v.1.15,2013-05-03 10:50:00,
2013-05-03 05:56:00,32.0,31.0,30.12,NNE,30,4.0,16.0,96,0.00,,,0.00,Wunderground v.1.15,2013-05-03 10:56:00,
2013-05-03 06:02:00,32.0,31.0,30.12,NW,326,4.0,16.0,96,0.00,,,0.00,Wunderground v.1.15,2013-05-03 11:02:00,
2013-05-03 06:08:00,32.0,31.0,30.12,NNE,31,4.0,16.0,96,0.00,,,0.00,Wunderground v.1.15,2013-05-03 11:08:00,
2013-05-03 06:14:00,32.0,31.0,30.12,NNW,345,3.0,16.0,96,0.00,,,0.00,Wunderground v.1.15,2013-05-03 11:14:00,
2013-05-03 06:20:00,32.0,31.0,30.13,NW,318,4.0,4.0,96,0.00,,,0.00,Wunderground v.1.15,2013-05-03 11:20:00,
2013-05-03 06:26:00,32.0,31.0,30.13,NNW,346,4.0,16.0,96,0.00,,,0.00,Wunderground v.1.15,2013-05-03 11:26:00,
2013-05-03 06:32:00,32.0,31.0,30.13,NE,36,3.0,6.0,96,0.00,,,0.00,Wunderground v.1.15,2013-05-03 11:32:00,
2013-05-03 06:38:00,32.0,31.0,30.14,WNW,302,4.0,16.0,96,0.00,,,0.00,Wunderground v.1.15,2013-05-03 11:38:00,
2013-05-03 06:43:00,32.0,31.0,30.14,NNW,332,4.0,16.0,96,0.00,,,0.00,Wunderground v.1.15,2013-05-03 11:43:00,
2013-05-03 06:50:00,32.0,31.0,30.14,ENE,61,4.0,16.0,96,0.00,,,0.00,Wunderground v.1.15,2013-05-03 11:50:00,
2013-05-03 06:56:00,32.1,31.1,30.14,NW,305,4.0,16.0,96,0.00,,,0.00,Wunderground v.1.15,2013-05-03 11:56:00,
2013-05-03 07:02:00,32.1,31.1,30.14,NNE,25,3.0,16.0,96,0.00,,,0.00,Wunderground v.1.15,2013-05-03 12:02:00,
2013-05-03 07:08:00,32.1,31.1,30.14,North,11,4.0,16.0,96,0.00,,,0.00,Wunderground v.1.15,2013-05-03 12:08:00,
2013-05-03 07:14:00,32.0,31.0,30.14,NW,304,4.0,16.0,96,0.00,,,0.00,Wunderground v.1.15,2013-05-03 12:14:00,
2013-05-03 07:20:00,32.0,31.0,30.14,NW,318,3.0,16.0,96,0.00,,,0.00,Wunderground v.1.15,2013-05-03 12:20:00,
2013-05-03 07:25:00,32.0,31.0,30.14,North,350,3.0,16.0,96,0.00,,,0.00,Wunderground v.1.15,2013-05-03 12:25:00,
2013-05-03 07:32:00,32.0,31.0,30.14,NW,326,4.0,16.0,96,0.00,,,0.00,Wunderground v.1.15,2013-05-03 12:32:00,
2013-05-03 07:38:00,32.1,31.1,30.14,NNE,19,3.0,16.0,96,0.00,,,0.00,Wunderground v.1.15,2013-05-03 12:38:00,
2013-05-03 07:44:00,32.1,31.3,30.14,NNE,20,2.0,16.0,97,0.00,,,0.00,Wunderground v.1.15,2013-05-03 12:44:00,
2013-05-03 07:50:00,32.1,31.3,30.14,NNE,32,2.0,16.0,97,0.00,,,0.01,Wunderground v.1.15,2013-05-03 12:50:00,
2013-05-03 07:56:00,32.1,31.3,30.14,NW,314,3.0,16.0,97,0.00,,,0.01,Wunderground v.1.15,2013-05-03 12:56:00,
2013-05-03 08:02:00,32.1,31.3,30.13,NNE,20,3.0,16.0,97,0.00,,,0.01,Wunderground v.1.15,2013-05-03 13:02:00,
2013-05-03 08:07:00,32.1,31.3,30.13,NNE,18,3.0,16.0,97,0.00,,,0.01,Wunderground v.1.15,2013-05-03 13:07:00,
2013-05-03 08:14:00,32.1,31.3,30.13,NNE,22,3.0,16.0,97,0.00,,,0.01,Wunderground v.1.15,2013-05-03 13:14:00,
2013-05-03 08:20:00,32.1,31.3,30.11,NW,315,3.0,16.0,97,0.00,,,0.01,Wunderground v.1.15,2013-05-03 13:20:00,
2013-05-03 08:26:00,32.1,31.3,30.10,North,5,4.0,16.0,97,0.00,,,0.01,Wunderground v.1.15,2013-05-03 13:26:00,
2013-05-03 08:32:00,32.2,31.4,30.10,NW,305,5.0,16.0,97,0.00,,,0.01,Wunderground v.1.15,2013-05-03 13:32:00,
2013-05-03 08:37:00,32.1,31.3,30.09,NNW,344,5.0,16.0,97,0.00,,,0.01,Wunderground v.1.15,2013-05-03 13:37:00,
2013-05-03 08:44:00,32.2,31.4,30.09,NNE,20,4.0,16.0,97,0.00,,,0.02,Wunderground v.1.15,2013-05-03 13:44:00,
2013-05-03 08:49:00,32.2,31.4,30.09,NNW,345,4.0,4.0,97,0.07,,,0.04,Wunderground v.1.15,2013-05-03 13:49:00,
2013-05-03 08:56:00,32.3,31.5,30.09,NE,51,5.0,16.0,97,0.09,,,0.05,Wunderground v.1.15,2013-05-03 13:56:00,
2013-05-03 09:02:00,32.3,31.5,30.09,NW,323,4.0,6.0,97,0.09,,,0.06,Wunderground v.1.15,2013-05-03 14:02:00,
2013-05-03 09:08:00,32.3,31.5,30.09,NE,43,5.0,16.0,97,0.09,,,0.06,Wunderground v.1.15,2013-05-03 14:08:00,
2013-05-03 09:14:00,32.3,31.3,30.08,West,277,5.0,16.0,96,0.07,,,0.07,Wunderground v.1.15,2013-05-03 14:14:00,
2013-05-03 09:20:00,32.4,31.4,30.08,NNE,23,5.0,16.0,96,0.08,,,0.09,Wunderground v.1.15,2013-05-03 14:20:00,
2013-05-03 09:26:00,32.5,31.5,30.08,NW,326,5.0,16.0,96,0.07,,,0.09,Wunderground v.1.15,2013-05-03 14:26:00,
2013-05-03 09:31:00,32.5,31.5,30.08,North,357,5.0,16.0,96,0.06,,,0.10,Wunderground v.1.15,2013-05-03 14:31:00,
2013-05-03 09:38:00,32.6,31.6,30.08,North,4,4.0,16.0,96,0.06,,,0.10,Wunderground v.1.15,2013-05-03 14:38:00,
2013-05-03 09:43:00,32.6,31.6,30.08,NNW,335,4.0,16.0,96,0.05,,,0.11,Wunderground v.1.15,2013-05-03 14:43:00,
2013-05-03 09:50:00,32.6,31.6,30.08,NNW,329,4.0,16.0,96,0.07,,,0.12,Wunderground v.1.15,2013-05-03 14:50:00,
2013-05-03 09:56:00,32.6,31.6,30.08,NNW,343,4.0,16.0,96,0.07,,,0.12,Wunderground v.1.15,2013-05-03 14:56:00,
2013-05-03 10:01:00,32.7,31.7,30.07,WNW,301,4.0,7.0,96,0.08,,,0.14,Wunderground v.1.15,2013-05-03 15:01:00,
2013-05-03 10:08:00,32.7,31.7,30.08,ENE,63,4.0,16.0,96,0.09,,,0.15,Wunderground v.1.15,2013-05-03 15:08:00,
2013-05-03 10:13:00,32.7,31.7,30.07,NW,326,4.0,16.0,96,0.07,,,0.16,Wunderground v.1.15,2013-05-03 15:13:00,
2013-05-03 10:20:00,32.7,31.7,30.07,NW,307,4.0,4.0,96,0.07,,,0.16,Wunderground v.1.15,2013-05-03 15:20:00,
2013-05-03 10:26:00,32.7,31.7,30.06,East,79,5.0,16.0,96,0.07,,,0.17,Wunderground v.1.15,2013-05-03 15:26:00,
2013-05-03 10:32:00,32.7,31.7,30.07,NNW,332,4.0,16.0,96,0.07,,,0.19,Wunderground v.1.15,2013-05-03 15:32:00,
2013-05-03 10:38:00,32.7,31.7,30.07,NNW,342,4.0,16.0,96,0.10,,,0.20,Wunderground v.1.15,2013-05-03 15:38:00,
2013-05-03 10:44:00,32.7,31.7,30.06,NNW,337,5.0,16.0,96,0.11,,,0.21,Wunderground v.1.15,2013-05-03 15:44:00,
2013-05-03 10:50:00,32.8,31.8,30.06,NW,320,5.0,5.0,96,0.13,,,0.22,Wunderground v.1.15,2013-05-03 15:50:00,
2013-05-03 10:55:00,32.8,31.8,30.06,NW,318,5.0,16.0,96,0.12,,,0.24,Wunderground v.1.15,2013-05-03 15:55:00,
2013-05-03 11:02:00,32.8,31.8,30.07,NW,319,4.0,16.0,96,0.11,,,0.25,Wunderground v.1.15,2013-05-03 16:02:00,
2013-05-03 11:07:00,32.8,31.8,30.07,NNE,26,3.0,16.0,96,0.09,,,0.26,Wunderground v.1.15,2013-05-03 16:07:00,
2013-05-03 11:14:00,32.8,31.8,30.07,North,8,4.0,16.0,96,0.10,,,0.27,Wunderground v.1.15,2013-05-03 16:14:00,
2013-05-03 11:20:00,32.8,31.8,30.06,NW,323,4.0,4.0,96,0.10,,,0.29,Wunderground v.1.15,2013-05-03 16:20:00,
2013-05-03 11:26:00,32.9,31.9,30.05,North,11,4.0,16.0,96,0.17,,,0.31,Wunderground v.1.15,2013-05-03 16:26:00,
2013-05-03 11:32:00,33.0,32.0,30.06,ENE,78,4.0,16.0,96,0.13,,,0.32,Wunderground v.1.15,2013-05-03 16:32:00,
2013-05-03 11:37:00,33.0,32.0,30.04,NW,315,6.0,16.0,96,0.10,,,0.34,Wunderground v.1.15,2013-05-03 16:37:00,
2013-05-03 11:44:00,33.1,32.1,30.04,ENE,68,6.0,16.0,96,0.08,,,0.35,Wunderground v.1.15,2013-05-03 16:44:00,
2013-05-03 11:50:00,33.2,32.2,30.04,North,11,5.0,16.0,96,0.12,,,0.36,Wunderground v.1.15,2013-05-03 16:50:00,
2013-05-03 11:56:00,33.2,32.2,30.04,NE,34,4.0,16.0,96,0.12,,,0.37,Wunderground v.1.15,2013-05-03 16:56:00,
2013-05-03 12:02:00,33.2,32.2,30.04,NNW,347,5.0,16.0,96,0.13,,,0.39,Wunderground v.1.15,2013-05-03 17:02:00,
2013-05-03 12:08:00,33.3,32.3,30.04,North,360,5.0,16.0,96,0.14,,,0.41,Wunderground v.1.15,2013-05-03 17:08:00,
2013-05-03 12:14:00,33.2,32.2,30.04,North,8,5.0,16.0,96,0.14,,,0.42,Wunderground v.1.15,2013-05-03 17:14:00,
2013-05-03 12:20:00,33.3,32.3,30.03,NNE,23,4.0,4.0,96,0.15,,,0.45,Wunderground v.1.15,2013-05-03 17:20:00,
2013-05-03 12:26:00,33.4,32.4,30.03,NW,307,4.0,16.0,96,0.14,,,0.46,Wunderground v.1.15,2013-05-03 17:26:00,
2013-05-03 12:32:00,33.4,32.4,30.03,NNE,27,4.0,16.0,96,0.16,,,0.49,Wunderground v.1.15,2013-05-03 17:32:00,
2013-05-03 12:38:00,33.6,32.6,30.03,North,357,3.0,16.0,96,0.15,,,0.50,Wunderground v.1.15,2013-05-03 17:38:00,
2013-05-03 12:44:00,33.5,32.5,30.03,NNW,336,3.0,16.0,96,0.14,,,0.51,Wunderground v.1.15,2013-05-03 17:44:00,
2013-05-03 12:50:00,33.5,32.5,30.03,NNE,25,4.0,4.0,96,0.12,,,0.54,Wunderground v.1.15,2013-05-03 17:50:00,
2013-05-03 12:56:00,33.6,32.6,30.03,NNW,329,4.0,16.0,96,0.11,,,0.55,Wunderground v.1.15,2013-05-03 17:56:00,
2013-05-03 13:01:00,33.6,32.6,30.03,NW,319,4.0,16.0,96,0.11,,,0.56,Wunderground v.1.15,2013-05-03 18:01:00,
2013-05-03 13:08:00,33.7,32.7,30.04,North,355,2.0,16.0,96,0.10,,,0.57,Wunderground v.1.15,2013-05-03 18:08:00,
2013-05-03 13:14:00,33.8,32.8,30.04,NNE,18,3.0,16.0,96,0.12,,,0.59,Wunderground v.1.15,2013-05-03 18:14:00,
2013-05-03 13:20:00,33.7,32.7,30.04,NE,53,2.0,2.0,96,0.12,,,0.60,Wunderground v.1.15,2013-05-03 18:20:00,
2013-05-03 13:26:00,33.7,32.4,30.03,NNE,20,3.0,16.0,95,0.12,,,0.61,Wunderground v.1.15,2013-05-03 18:26:00,
2013-05-03 13:32:00,33.8,32.8,30.03,NNW,329,2.0,16.0,96,0.12,,,0.62,Wunderground v.1.15,2013-05-03 18:32:00,
2013-05-03 13:38:00,33.8,32.5,30.02,NE,40,3.0,16.0,95,0.10,,,0.64,Wunderground v.1.15,2013-05-03 18:38:00,
2013-05-03 13:44:00,33.9,32.9,30.01,NNW,342,4.0,16.0,96,0.13,,,0.66,Wunderground v.1.15,2013-05-03 18:44:00,
2013-05-03 13:50:00,34.0,33.0,30.01,NNW,329,4.0,4.0,96,0.10,,,0.67,Wunderground v.1.15,2013-05-03 18:50:00,
2013-05-03 13:56:00,33.9,32.9,30.01,NNW,338,3.0,16.0,96,0.12,,,0.69,Wunderground v.1.15,2013-05-03 18:56:00,
2013-05-03 14:02:00,34.0,33.0,30.01,North,9,3.0,16.0,96,0.17,,,0.71,Wunderground v.1.15,2013-05-03 19:02:00,
2013-05-03 14:08:00,34.0,33.0,30.01,North,356,3.0,16.0,96,0.12,,,0.72,Wunderground v.1.15,2013-05-03 19:08:00,
2013-05-03 14:14:00,34.0,33.0,30.01,WNW,293,3.0,16.0,96,0.11,,,0.74,Wunderground v.1.15,2013-05-03 19:14:00,
2013-05-03 14:20:00,34.0,33.0,30.02,NNE,29,3.0,3.0,96,0.10,,,0.75,Wunderground v.1.15,2013-05-03 19:20:00,
2013-05-03 14:25:00,34.1,33.1,30.02,NW,316,3.0,16.0,96,0.12,,,0.76,Wunderground v.1.15,2013-05-03 19:25:00,
2013-05-03 14:32:00,34.1,33.1,30.00,NNW,335,3.0,16.0,96,0.15,,,0.79,Wunderground v.1.15,2013-05-03 19:32:00,
2013-05-03 14:38:00,34.2,33.2,29.99,NW,322,3.0,16.0,96,0.11,,,0.80,Wunderground v.1.15,2013-05-03 19:38:00,
2013-05-03 14:44:00,34.3,33.3,29.99,NNE,23,3.0,16.0,96,0.08,,,0.80,Wunderground v.1.15,2013-05-03 19:44:00,
2013-05-03 14:50:00,34.2,33.2,30.00,NW,318,4.0,4.0,96,0.12,,,0.82,Wunderground v.1.15,2013-05-03 19:50:00,
2013-05-03 14:55:00,34.3,33.3,30.00,NNW,343,4.0,16.0,96,0.09,,,0.82,Wunderground v.1.15,2013-05-03 19:55:00,
2013-05-03 15:02:00,34.4,33.4,30.01,NE,46,3.0,16.0,96,0.09,,,0.84,Wunderground v.1.15,2013-05-03 20:02:00,
2013-05-03 15:07:00,34.5,33.5,30.01,NW,309,3.0,16.0,96,0.14,,,0.86,Wunderground v.1.15,2013-05-03 20:07:00,
2013-05-03 15:14:00,34.5,33.5,30.00,West,276,3.0,16.0,96,0.14,,,0.87,Wunderground v.1.15,2013-05-03 20:14:00,
2013-05-03 15:20:00,34.5,33.2,30.00,NNE,33,4.0,4.0,95,0.12,,,0.89,Wunderground v.1.15,2013-05-03 20:20:00,
2013-05-03 15:26:00,34.5,33.5,30.00,NNW,328,4.0,16.0,96,0.11,,,0.90,Wunderground v.1.15,2013-05-03 20:26:00,
2013-05-03 15:32:00,34.6,33.6,30.01,NE,44,3.0,16.0,96,0.12,,,0.91,Wunderground v.1.15,2013-05-03 20:32:00,
2013-05-03 15:38:00,34.7,33.7,30.01,NE,51,3.0,16.0,96,0.11,,,0.92,Wunderground v.1.15,2013-05-03 20:38:00,
2013-05-03 15:44:00,34.8,33.8,30.00,NE,55,2.0,16.0,96,0.09,,,0.94,Wunderground v.1.15,2013-05-03 20:44:00,
2013-05-03 15:49:00,34.9,33.9,29.99,NNE,19,2.0,16.0,96,0.07,,,0.95,Wunderground v.1.15,2013-05-03 20:49:00,
2013-05-03 15:56:00,35.0,34.0,29.99,NNW,340,3.0,16.0,96,0.10,,,0.96,Wunderground v.1.15,2013-05-03 20:56:00,
2013-05-03 16:02:00,35.0,34.0,30.00,NNE,18,3.0,16.0,96,0.08,,,0.97,Wunderground v.1.15,2013-05-03 21:02:00,
2013-05-03 16:08:00,35.0,33.7,30.00,NNW,332,3.0,16.0,95,0.08,,,0.97,Wunderground v.1.15,2013-05-03 21:08:00,
2013-05-03 16:14:00,35.0,33.7,30.00,NW,316,2.0,16.0,95,0.06,,,0.99,Wunderground v.1.15,2013-05-03 21:14:00,
2013-05-03 16:19:00,35.0,33.7,29.99,WNW,300,3.0,16.0,95,0.06,,,0.99,Wunderground v.1.15,2013-05-03 21:19:00,
2013-05-03 16:26:00,35.1,34.1,29.99,NNW,329,3.0,16.0,96,0.05,,,1.00,Wunderground v.1.15,2013-05-03 21:26:00,
2013-05-03 16:31:00,35.1,34.1,29.98,NW,322,3.0,16.0,96,0.05,,,1.00,Wunderground v.1.15,2013-05-03 21:31:00,
2013-05-03 16:38:00,35.1,33.8,29.98,NW,315,3.0,16.0,95,0.08,,,1.01,Wunderground v.1.15,2013-05-03 21:38:00,
2013-05-03 16:44:00,35.0,33.7,29.97,NNW,329,4.0,16.0,95,0.09,,,1.02,Wunderground v.1.15,2013-05-03 21:44:00,
2013-05-03 16:50:00,35.0,34.0,29.96,NW,326,4.0,4.0,96,0.11,,,1.04,Wunderground v.1.15,2013-05-03 21:50:00,
2013-05-03 16:56:00,35.0,34.0,29.96,NW,314,4.0,16.0,96,0.10,,,1.05,Wunderground v.1.15,2013-05-03 21:56:00,
2013-05-03 17:02:00,35.0,34.0,29.96,NNE,29,4.0,16.0,96,0.08,,,1.06,Wunderground v.1.15,2013-05-03 22:02:00,
2013-05-03 17:08:00,34.9,33.9,29.96,NNW,341,4.0,16.0,96,0.06,,,1.07,Wunderground v.1.15,2013-05-03 22:08:00,
2013-05-03 17:13:00,35.0,34.0,29.95,NE,41,4.0,16.0,96,0.06,,,1.07,Wunderground v.1.15,2013-05-03 22:13:00,
2013-05-03 17:20:00,35.1,34.1,29.95,NW,309,4.0,16.0,96,0.07,,,1.09,Wunderground v.1.15,2013-05-03 22:20:00,
2013-05-03 17:26:00,35.1,34.1,29.95,NNE,25,4.0,16.0,96,0.06,,,1.09,Wunderground v.1.15,2013-05-03 22:26:00,
2013-05-03 17:32:00,35.2,34.2,29.96,NNE,13,3.0,16.0,96,0.05,,,1.10,Wunderground v.1.15,2013-05-03 22:32:00,
2013-05-03 17:38:00,35.3,34.3,29.97,NNE,19,3.0,16.0,96,0.05,,,1.10,Wunderground v.1.15,2013-05-03 22:38:00,
2013-05-03 17:43:00,35.4,34.4,29.98,NNW,337,4.0,16.0,96,0.06,,,1.11,Wunderground v.1.15,2013-05-03 22:43:00,
2013-05-03 17:50:00,35.4,34.4,29.98,North,11,2.0,16.0,96,0.06,,,1.11,Wunderground v.1.15,2013-05-03 22:50:00,
2013-05-03 17:55:00,35.5,34.5,29.98,North,357,3.0,16.0,96,0.04,,,1.12,Wunderground v.1.15,2013-05-03 22:55:00,
2013-05-03 18:02:00,35.5,34.5,29.98,NNW,347,3.0,16.0,96,0.04,,,1.12,Wunderground v.1.15,2013-05-03 23:02:00,
2013-05-03 18:08:00,35.6,34.6,29.98,NE,44,3.0,16.0,96,0.06,,,1.14,Wunderground v.1.15,2013-05-03 23:08:00,
2013-05-03 18:14:00,35.6,34.3,29.98,ENE,65,3.0,16.0,95,0.06,,,1.14,Wunderground v.1.15,2013-05-03 23:14:00,
2013-05-03 18:20:00,35.7,34.4,29.98,NW,304,3.0,3.0,95,0.04,,,1.15,Wunderground v.1.15,2013-05-03 23:20:00,
2013-05-03 18:26:00,35.7,34.4,29.97,North,355,4.0,16.0,95,0.04,,,1.15,Wunderground v.1.15,2013-05-03 23:26:00,
2013-05-03 18:32:00,35.7,34.4,29.97,NW,308,4.0,16.0,95,0.04,,,1.15,Wunderground v.1.15,2013-05-03 23:32:00,
2013-05-03 18:37:00,35.7,34.4,29.97,NW,315,3.0,16.0,95,0.00,,,1.15,Wunderground v.1.15,2013-05-03 23:37:00,
2013-05-03 18:44:00,35.7,34.4,29.96,ENE,62,4.0,16.0,95,0.00,,,1.15,Wunderground v.1.15,2013-05-03 23:44:00,
2013-05-03 18:49:00,35.7,34.4,29.96,NW,326,4.0,4.0,95,0.00,,,1.16,Wunderground v.1.15,2013-05-03 23:49:00,
2013-05-03 18:56:00,35.7,34.4,29.96,NNE,26,4.0,16.0,95,0.00,,,1.16,Wunderground v.1.15,2013-05-03 23:56:00,
2013-05-03 19:02:00,35.7,34.4,29.96,North,4,4.0,16.0,95,0.04,,,1.17,Wunderground v.1.15,2013-05-04 00:02:00,
2013-05-03 19:07:00,35.7,34.7,29.96,NNW,339,4.0,16.0,96,0.04,,,1.17,Wunderground v.1.15,2013-05-04 00:07:00,
2013-05-03 19:14:00,35.7,34.7,29.96,NW,315,4.0,16.0,96,0.04,,,1.17,Wunderground v.1.15,2013-05-04 00:14:00,
2013-05-03 19:19:00,35.7,34.7,29.96,North,4,3.0,16.0,96,0.04,,,1.19,Wunderground v.1.15,2013-05-04 00:19:00,
2013-05-03 19:26:00,35.7,34.7,29.96,ENE,72,3.0,16.0,96,0.04,,,1.19,Wunderground v.1.15,2013-05-04 00:26:00,
2013-05-03 19:32:00,35.7,34.7,29.95,NW,306,3.0,16.0,96,0.05,,,1.20,Wunderground v.1.15,2013-05-04 00:32:00,
2013-05-03 19:38:00,35.7,34.7,29.95,NNW,339,4.0,16.0,96,0.06,,,1.21,Wunderground v.1.15,2013-05-04 00:38:00,
2013-05-03 19:44:00,35.7,34.7,29.95,North,8,4.0,16.0,96,0.06,,,1.21,Wunderground v.1.15,2013-05-04 00:44:00,
2013-05-03 19:50:00,35.7,34.7,29.95,NNW,348,4.0,4.0,96,0.04,,,1.21,Wunderground v.1.15,2013-05-04 00:50:00,
2013-05-03 19:56:00,35.7,34.7,29.96,NE,51,4.0,16.0,96,0.04,,,1.22,Wunderground v.1.15,2013-05-04 00:56:00,
2013-05-03 20:01:00,35.7,34.7,29.96,North,1,4.0,16.0,96,0.04,,,1.22,Wunderground v.1.15,2013-05-04 01:01:00,
2013-05-03 20:08:00,35.7,34.7,29.96,NW,307,3.0,16.0,96,0.05,,,1.24,Wunderground v.1.15,2013-05-04 01:08:00,
2013-05-03 20:13:00,35.7,34.7,29.96,NNW,336,3.0,16.0,96,0.06,,,1.25,Wunderground v.1.15,2013-05-04 01:13:00,
2013-05-03 20:20:00,35.7,34.7,29.96,WNW,287,3.0,3.0,96,0.06,,,1.25,Wunderground v.1.15,2013-05-04 01:20:00,
2013-05-03 20:26:00,35.7,34.7,29.96,ENE,74,3.0,16.0,96,0.07,,,1.26,Wunderground v.1.15,2013-05-04 01:26:00,
2013-05-03 20:32:00,35.8,34.8,29.97,NE,47,3.0,16.0,96,0.07,,,1.27,Wunderground v.1.15,2013-05-04 01:32:00,
2013-05-03 20:38:00,35.8,34.8,29.97,NW,307,4.0,16.0,96,0.09,,,1.29,Wunderground v.1.15,2013-05-04 01:38:00,
2013-05-03 20:44:00,35.8,34.8,29.96,WNW,294,3.0,16.0,96,0.12,,,1.30,Wunderground v.1.15,2013-05-04 01:44:00,
2013-05-03 20:50:00,35.7,34.7,29.96,North,9,3.0,3.0,96,0.06,,,1.31,Wunderground v.1.15,2013-05-04 01:50:00,
2013-05-03 20:55:00,35.8,34.8,29.96,NNE,27,2.0,16.0,96,0.06,,,1.31,Wunderground v.1.15,2013-05-04 01:55:00,
2013-05-03 21:02:00,35.8,34.8,29.96,NW,319,3.0,16.0,96,0.07,,,1.32,Wunderground v.1.15,2013-05-04 02:02:00,
2013-05-03 21:08:00,35.7,34.7,29.96,NW,316,3.0,16.0,96,0.08,,,1.34,Wunderground v.1.15,2013-05-04 02:08:00,
2013-05-03 21:14:00,35.7,34.9,29.96,NNW,346,3.0,16.0,97,0.08,,,1.34,Wunderground v.1.15,2013-05-04 02:14:00,
2013-05-03 21:20:00,35.8,35.0,29.96,NW,307,3.0,16.0,97,0.08,,,1.35,Wunderground v.1.15,2013-05-04 02:20:00,
2013-05-03 21:25:00,35.7,34.9,29.96,NNW,335,3.0,16.0,97,0.10,,,1.36,Wunderground v.1.15,2013-05-04 02:25:00,
2013-05-03 21:32:00,35.7,34.9,29.96,NE,41,3.0,16.0,97,0.09,,,1.37,Wunderground v.1.15,2013-05-04 02:32:00,
2013-05-03 21:37:00,35.7,34.9,29.96,WNW,302,3.0,16.0,97,0.06,,,1.37,Wunderground v.1.15,2013-05-04 02:37:00,
2013-05-03 21:44:00,35.7,34.9,29.96,NW,314,4.0,16.0,97,0.04,,,1.37,Wunderground v.1.15,2013-05-04 02:44:00,
2013-05-03 21:50:00,35.7,34.9,29.95,NNW,328,3.0,16.0,97,0.00,,,1.39,Wunderground v.1.15,2013-05-04 02:50:00,
2013-05-03 21:56:00,35.7,34.9,29.96,NW,319,3.0,16.0,97,0.00,,,1.39,Wunderground v.1.15,2013-05-04 02:56:00,
2013-05-03 22:02:00,35.8,35.0,29.96,NNE,15,3.0,16.0,97,0.00,,,1.39,Wunderground v.1.15,2013-05-04 03:02:00,
2013-05-03 22:07:00,35.8,35.0,29.96,NNW,342,3.0,16.0,97,0.00,,,1.39,Wunderground v.1.15,2013-05-04 03:07:00,
2013-05-03 22:14:00,35.8,35.0,29.96,NNW,345,4.0,16.0,97,0.00,,,1.40,Wunderground v.1.15,2013-05-04 03:14:00,
2013-05-03 22:20:00,35.9,35.1,29.94,NNW,329,4.0,16.0,97,0.26,,,1.42,Wunderground v.1.15,2013-05-04 03:20:00,
2013-05-03 22:26:00,35.8,35.0,29.94,NNW,337,4.0,16.0,97,0.11,,,1.44,Wunderground v.1.15,2013-05-04 03:26:00,
2013-05-03 22:32:00,35.8,35.0,29.95,NNW,335,3.0,16.0,97,0.13,,,1.46,Wunderground v.1.15,2013-05-04 03:32:00,
2013-05-03 22:38:00,35.9,35.1,29.96,NNE,29,3.0,16.0,97,0.14,,,1.47,Wunderground v.1.15,2013-05-04 03:38:00,
2013-05-03 22:44:00,35.9,35.1,29.97,NNE,29,3.0,16.0,97,0.13,,,1.49,Wunderground v.1.15,2013-05-04 03:44:00,
2013-05-03 22:49:00,36.0,35.2,29.96,NNE,30,3.0,16.0,97,0.36,,,1.54,Wunderground v.1.15,2013-05-04 03:49:00,
2013-05-03 22:56:00,35.9,35.1,29.94,NW,321,4.0,16.0,97,0.31,,,1.59,Wunderground v.1.15,2013-05-04 03:56:00,
2013-05-03 23:01:00,35.9,35.1,29.92,NW,316,4.0,16.0,97,0.31,,,1.62,Wunderground v.1.15,2013-05-04 04:01:00,
2013-05-03 23:03:00,35.9,35.1,29.93,NNW,336,4.0,16.0,97,0.29,,,1.64,Wunderground v.1.15,2013-05-04 04:03:00,
2013-05-03 23:08:00,35.9,35.1,29.93,NNE,29,4.0,16.0,97,0.10,,,1.64,Wunderground v.1.15,2013-05-04 04:08:00,
2013-05-03 23:13:00,35.9,35.1,29.93,ENE,60,4.0,16.0,97,0.09,,,1.65,Wunderground v.1.15,2013-05-04 04:13:00,
2013-05-03 23:20:00,36.0,35.2,29.93,NNW,345,3.0,3.0,97,0.05,,,1.65,Wunderground v.1.15,2013-05-04 04:20:00,
2013-05-03 23:26:00,36.0,35.2,29.94,NE,44,3.0,16.0,97,0.00,,,1.65,Wunderground v.1.15,2013-05-04 04:26:00,
2013-05-03 23:32:00,36.0,35.2,29.92,NW,311,3.0,16.0,97,0.38,,,1.69,Wunderground v.1.15,2013-05-04 04:32:00,
2013-05-03 23:38:00,36.1,35.3,29.94,NE,44,4.0,16.0,97,0.33,,,1.72,Wunderground v.1.15,2013-05-04 04:38:00,
2013-05-03 23:43:00,36.2,35.4,29.94,WNW,297,4.0,16.0,97,0.81,,,1.79,Wunderground v.1.15,2013-05-04 04:43:00,
2013-05-03 23:50:00,36.1,35.3,29.93,NNE,22,4.0,16.0,97,0.30,,,1.85,Wunderground v.1.15,2013-05-04 04:50:00,
2013-05-03 23:56:00,36.1,35.3,29.94,NNE,31,4.0,16.0,97,0.33,,,1.90,Wunderground v.1.15,2013-05-04 04:56:00,